Preview of NWS' New Version of Forecast
This preview is not operational and should not be used for support decisions.

Regional Weather Roundup (RWR)

Issued by National Weather Service (NWS)

                            
000
ASUS43 KBIS 200510
RWRND 

NORTH DAKOTA REGIONAL WEATHER ROUNDUP
NATIONAL WEATHER SERVICE BISMARCK ND
1100 PM CST TUE FEB 19 2019

NOTE: "FAIR" INDICATES FEW OR NO CLOUDS BELOW 12,000 FEET WITH NO
SIGNIFICANT WEATHER AND/OR OBSTRUCTIONS TO VISIBILITY.


NDZ001>003-009>011-017-200600-
NORTHWEST NORTH DAKOTA
  
CITY           SKY/WX    TMP DP  RH WIND       PRES   REMARKS
WILLISTON      CLEAR    -13 -17  82 CALM      29.89F                  
MINOT          CLOUDY     0  -5  79 S7        29.96F WCI -13          
MINOT AFB      CLEAR      1  -5  77 S16       29.96F WCI -19          
$$
 
NDZ018>021-031>035-040>046-200600-
SOUTHWEST NORTH DAKOTA
  
CITY           SKY/WX    TMP DP  RH WIND       PRES   REMARKS
BISMARCK       LGT SNOW   3  -1  83 E8        30.02F FOG     WCI -10  
DICKINSON      CLOUDY     2  -3  80 S13       29.84F WCI -15          
GARRISON         N/A     -5  -9  83 S5        29.96F WCI -16          
HETTINGER ARPT FLURRIES   0  -6  76 E3        29.87F                  
$$
 
NDZ004>008-012>016-024-026-027-054-200600-
NORTHEAST NORTH DAKOTA
  
CITY           SKY/WX    TMP DP  RH WIND       PRES   REMARKS
GRAND FORKS    PTCLDY     0  -4  83 S8        30.17F WCI -14          
GRND FRKS AFB  CLEAR      1  -4  81 S10       30.15F WCI -15          
DEVILS LAKE    FLURRIES   1  -3  83 S9        30.06F WCI -14          
$$
 
NDZ022-023-025-028>030-036>039-047>053-200600-
SOUTHEAST NORTH DAKOTA
  
CITY           SKY/WX    TMP DP  RH WIND       PRES   REMARKS
FARGO          LGT SNOW  10   7  87 SE9       30.17F FOG     WCI  -3  
JAMESTOWN      LGT SNOW   8   5  87 S9        30.06F FOG     WCI  -5  
$$